Location: Sevilla
(37.3933°N, 5.9839°W)
Time: 04:23:28
(UTC+02:00)

Vanguard 3 - Pass Details

Date: 29 June 2024
Orbit: 508 x 3231 km, 33.4° (Epoch: 15 July)

Event Time Altitude Azimuth Distance (km) Brightness Sun altitude
Rises 04:32:28 0° 179° (S) 7,127 - -22.6°
Exits shadow 04:36:43 - 170° (S) 6,677 11.4 -22.2°
Reaches altitude 10° 04:43:40 10° 151° (SSE) 6,095 11.3 -21.5°
Maximum altitude 04:48:01 11° 138° (SE) 5,878 11.4 -21.0°
Drops below altitude 10° 04:52:09 10° 124° (SE) 5,810 11.5 -20.5°
Sets 05:01:30 0° 95° (E) 6,237 12.1 -19.4°
